TimeEST,TemperatureF,Dew PointF,Humidity,Sea Level PressureIn,VisibilityMPH,Wind Direction,Wind SpeedMPH,Gust SpeedMPH,PrecipitationIn,Events,Conditions,WindDirDegrees,DateUTC
12:51 AM,32.0,23.0,69,30.36,10.0,WNW,10.4,-,N/A,,Clear,300,2013-03-04 05:51:00
1:51 AM,32.0,23.0,69,30.36,10.0,WNW,8.1,-,N/A,,Mostly Cloudy,300,2013-03-04 06:51:00
2:25 AM,32.0,21.2,64,29.61,10.0,NW,10.4,-,N/A,,Overcast,310,2013-03-04 07:25:00
2:34 AM,32.0,21.2,64,29.61,10.0,NW,13.8,21.9,N/A,,Overcast,310,2013-03-04 07:34:00
2:51 AM,32.0,22.1,67,30.35,10.0,NW,11.5,18.4,N/A,,Overcast,310,2013-03-04 07:51:00
4:51 AM,30.0,21.0,69,30.37,10.0,NW,9.2,-,N/A,,Partly Cloudy,320,2013-03-04 09:51:00
5:11 AM,30.2,21.2,69,29.62,10.0,WNW,10.4,-,N/A,,Mostly Cloudy,300,2013-03-04 10:11:00
5:51 AM,30.0,20.1,67,30.38,10.0,NW,13.8,19.6,N/A,,Mostly Cloudy,310,2013-03-04 10:51:00
7:51 AM,30.0,18.1,61,30.39,10.0,WNW,16.1,24.2,N/A,,Scattered Clouds,300,2013-03-04 12:51:00
8:51 AM,32.0,19.0,59,30.37,10.0,NNW,19.6,26.5,N/A,,Scattered Clouds,330,2013-03-04 13:51:00
9:51 AM,34.9,20.1,55,30.36,10.0,NNW,25.3,29.9,N/A,,Scattered Clouds,330,2013-03-04 14:51:00
10:51 AM,34.0,20.1,57,30.37,10.0,North,15.0,25.3,N/A,,Scattered Clouds,360,2013-03-04 15:51:00
11:51 AM,36.0,21.0,55,30.36,10.0,NNW,23.0,29.9,N/A,,Scattered Clouds,330,2013-03-04 16:51:00
12:51 PM,36.9,20.1,51,30.35,10.0,NW,18.4,24.2,N/A,,Partly Cloudy,320,2013-03-04 17:51:00
3:51 PM,36.9,24.1,60,30.36,10.0,NW,16.1,24.2,N/A,,Partly Cloudy,320,2013-03-04 20:51:00
4:51 PM,34.9,25.2,68,30.38,10.0,NW,17.3,24.2,N/A,,Clear,320,2013-03-04 21:51:00
5:51 PM,32.9,27.1,79,30.41,10.0,NW,17.3,-,N/A,,Clear,320,2013-03-04 22:51:00
6:51 PM,32.9,25.2,73,30.44,10.0,NNW,17.3,25.3,N/A,,Partly Cloudy,330,2013-03-04 23:51:00
7:51 PM,32.9,24.1,70,30.45,10.0,NNW,12.7,19.6,N/A,,Overcast,330,2013-03-05 00:51:00
8:51 PM,32.9,22.1,65,30.47,10.0,NNW,18.4,24.2,N/A,,Overcast,330,2013-03-05 01:51:00
9:51 PM,32.0,22.1,67,30.49,10.0,NNW,19.6,27.6,N/A,,Overcast,330,2013-03-05 02:51:00
10:51 PM,31.1,21.0,66,30.51,10.0,NW,13.8,-,N/A,,Clear,320,2013-03-05 03:51:00
11:51 PM,30.0,21.0,69,30.51,10.0,NW,12.7,-,N/A,,Scattered Clouds,320,2013-03-05 04:51:00